This is the latest recevied weather packets stored in our database for station/object KK7ISX. If no packets are shown the sender has not sent any weather packets the latest 10 day(s).
| Time | Temp. | Humidity | Pressure | Rain* | Wind** | Luminosity | Snow |
|---|---|---|---|---|---|---|---|
| 1777407529 | 15.56° C | 38% | 1019.6 hPa | 0 mm | - | 739 W/m² | - |
| 1777407222 | 16.11° C | 39% | 1019.9 hPa | 0 mm | - | 729 W/m² | - |
| 1777406918 | 16.11° C | 36% | 1019.9 hPa | 0 mm | - | 720 W/m² | - |
| 1777406613 | 16.11° C | 37% | 1020 hPa | 0 mm | - | 728 W/m² | - |
| 1777406309 | 15.56° C | 37% | 1019.8 hPa | 0 mm | - | 730 W/m² | - |
| 1777406008 | 15.56° C | 39% | 1020 hPa | 0 mm | - | 740 W/m² | - |
| 1777405705 | 15.56° C | 38% | 1019.9 hPa | 0 mm | - | 739 W/m² | - |
| 1777405401 | 15.56° C | 40% | 1019.8 hPa | 0 mm | - | 742 W/m² | - |
| 1777405098 | 15.56° C | 39% | 1020.1 hPa | 0 mm | - | 743 W/m² | - |
| 1777404792 | 15° C | 39% | 1020.1 hPa | 0 mm | - | 749 W/m² | - |
| 1777404489 | 16.11° C | 40% | 1020.2 hPa | 0 mm | - | 749 W/m² | - |
| 1777404185 | 16.11° C | 38% | 1020.2 hPa | 0 mm | - | 744 W/m² | - |
| 1777403881 | 16.11° C | 40% | 1020.3 hPa | 0 mm | - | 748 W/m² | - |
| 1777403575 | 15° C | 41% | 1020.2 hPa | 0 mm | - | 747 W/m² | - |
| 1777403276 | 15° C | 42% | 1020.2 hPa | 0 mm | - | 753 W/m² | - |
| 1777402976 | 15.56° C | 41% | 1020.4 hPa | 0 mm | - | 744 W/m² | - |
| 1777402671 | 15.56° C | 43% | 1020.5 hPa | 0 mm | - | 742 W/m² | - |
| 1777402370 | 15.56° C | 40% | 1020.5 hPa | 0 mm | - | 743 W/m² | - |
| 1777402069 | 15.56° C | 38% | 1020.5 hPa | 0 mm | - | 741 W/m² | - |
| 1777401764 | 15.56° C | 37% | 1020.5 hPa | 0 mm | - | 740 W/m² | - |
| 1777401459 | 15° C | 42% | 1020.4 hPa | 0 mm | - | 739 W/m² | - |
| 1777401155 | 16.67° C | 42% | 1020.4 hPa | 0 mm | - | 736 W/m² | - |
| 1777400852 | 15° C | 44% | 1020.5 hPa | 0 mm | - | 734 W/m² | - |
| 1777400548 | 13.89° C | 49% | 1020.5 hPa | 0 mm | - | 732 W/m² | - |
| 1777400245 | 15° C | 45% | 1020.7 hPa | 0 mm | - | 730 W/m² | - |
* Rain latest hour (hover to see other rain measurements)
** Current wind speed in m/s (hover to see current wind gust speed)